User: anonymous   Login
Location: Young's Pond
(41.2695°N, 72.7766°W)
Time: 04:22:10
(UTC-04:00)
Language:

Spot 4 - Orbit

View from above orbital plane
View from above orbital plane
View from above satellite
View from above satellite

Ground track
Ground track

The orbit data is extracted from the following two-line orbital elements,

1 25260U 98017A   18145.26481527  .00000018  00000-0  15351-4 0  9992
2 25260  98.3257 231.0456 0011956 305.3359  54.6719 14.53534427 51536
Epoch (UTC): 25 May 2018 06:21:20
Eccentricity: 0.0011956
inclination: 98.3257°
perigee height: 705 km
apogee height: 722 km
right ascension of ascending node: 231.0456°
argument of perigee: 305.3359°
revolutions per day: 14.53534427
mean anomaly at epoch: 54.6719°
orbit number at epoch: 5153

The dashed part of the orbit path shows where the satellite is in the earth's shadow,  

DLR